User: anonymous   Login
Location: Unspecified
(0.0000°N, 0.0000°E)
Time: 22:32:47
(UTC+00:00)
Language:

S-NET D - Orbit

View from above orbital plane
View from above orbital plane
View from above satellite
View from above satellite

Ground track
Ground track

The orbit data is extracted from the following two-line orbital elements,

1 43186U 18014G   19047.34022499  .00000091  00000-0  13088-4 0  9994
2 43186  97.7163 317.5252 0012168  58.9489 301.2926 14.96578355 56831
Epoch (UTC): 16 February 2019 08:09:55
Eccentricity: 0.0012168
inclination: 97.7163°
perigee height: 569 km
apogee height: 586 km
right ascension of ascending node: 317.5252°
argument of perigee: 58.9489°
revolutions per day: 14.96578355
mean anomaly at epoch: 301.2926°
orbit number at epoch: 5683

The dashed part of the orbit path shows where the satellite is in the earth's shadow,  

DLR